sat.trackr.live / text

‹ back to catalog

STARLINK-5562

NORAD 56336 · 2023-058V

PAYLOAD ACTIVE UNKNOWN

§ Identity

Operator
Country
US
Launch date
2023-04-27
Launch site
AFWTR
Launch vehicle
Mass (kg)
RCS (m²)

Purposes: comms

External: N2YO · Heavens-Above · Gunter

§ Orbital elements

Epoch: 2026-05-24T23:25:37.644096Z

Period
95.64 min
Inclination
97.4475°
Eccentricity
0.0001604
Mean motion
15.05691920 rev/d
Perigee alt
548.3 km
Apogee alt
550.5 km
Semi-major
6,927.5 km
B*
-5.5926e-4
RAAN
144.9500°
Arg perigee
85.6017°
Mean anomaly
274.5393°
Rev number
16,960

§ Raw data

STARLINK-55621 56336U 23058V   26144.97613014 -.00008128  00000+0 -55926-3 0  99992 56336  97.4475 144.9500 0001604  85.6017 274.5393 15.05691920169605

JSON: /api/v1/satellites/56336 · /tle

For live sub-satellite position, see the globe view (requires WebGL).

§ Visibility from observer

Set your observer location to see the next 7 days of passes ≥ 10°. The values pass through the URL so the page stays shareable.

No JS? Fill the form by hand. The geolocation button needs JavaScript.